TimeMST,TemperatureF,Dew PointF,Humidity,Sea Level PressureIn,VisibilityMPH,Wind Direction,Wind SpeedMPH,Gust SpeedMPH,PrecipitationIn,Events,Conditions,WindDirDegrees,DateUTC
12:53 AM,48.0,19.0,32,29.55,10.0,SSW,4.6,-,N/A,,Clear,200,2013-03-04 07:53:00
1:53 AM,48.0,19.0,32,29.54,10.0,South,5.8,-,N/A,,Clear,190,2013-03-04 08:53:00
2:53 AM,48.0,21.9,36,29.53,10.0,West,11.5,25.3,N/A,,Clear,270,2013-03-04 09:53:00
3:53 AM,48.9,24.1,38,29.54,10.0,WNW,25.3,38.0,N/A,,Clear,290,2013-03-04 10:53:00
4:53 AM,48.0,23.0,37,29.54,10.0,WNW,16.1,32.2,N/A,,Clear,290,2013-03-04 11:53:00
5:53 AM,46.9,23.0,39,29.59,10.0,West,9.2,25.3,N/A,,Clear,270,2013-03-04 12:53:00
6:53 AM,46.9,23.0,39,29.61,10.0,West,18.4,31.1,N/A,,Clear,280,2013-03-04 13:53:00
7:53 AM,50.0,21.9,33,29.59,10.0,West,24.2,36.8,N/A,,Clear,280,2013-03-04 14:53:00
8:53 AM,53.1,21.0,29,29.57,10.0,WNW,28.8,36.8,N/A,,Clear,290,2013-03-04 15:53:00
9:53 AM,55.9,19.9,25,29.55,10.0,WNW,28.8,39.1,N/A,,Clear,290,2013-03-04 16:53:00
10:53 AM,57.0,19.0,23,29.58,10.0,WNW,20.7,34.5,N/A,,Clear,300,2013-03-04 17:53:00
11:53 AM,55.9,18.0,23,29.58,10.0,West,24.2,35.7,N/A,,Overcast,280,2013-03-04 18:53:00
12:53 PM,55.9,19.0,24,29.57,10.0,WNW,18.4,34.5,N/A,,Partly Cloudy,290,2013-03-04 19:53:00
1:53 PM,55.9,19.0,24,29.57,10.0,West,32.2,40.3,N/A,,Clear,280,2013-03-04 20:53:00
2:53 PM,55.9,24.1,29,29.58,10.0,Variable,6.9,19.6,N/A,,Mostly Cloudy,0,2013-03-04 21:53:00
3:53 PM,55.9,21.0,26,29.59,10.0,West,20.7,32.2,N/A,,Mostly Cloudy,260,2013-03-04 22:53:00
4:53 PM,54.0,21.9,29,29.65,10.0,WNW,20.7,24.2,N/A,,Partly Cloudy,290,2013-03-04 23:53:00
5:51 PM,39.0,25.0,57,29.79,2.5,NNE,36.8,46.0,0.00,Rain,Light Rain,30,2013-03-05 00:51:00
5:54 PM,37.4,24.8,60,29.91,3.0,NNE,33.4,46.0,0.00,Rain,Light Rain,20,2013-03-05 00:54:00
6:02 PM,37.4,24.8,60,29.92,10.0,NNE,25.3,41.4,0.00,,Mostly Cloudy,20,2013-03-05 01:02:00
6:53 PM,30.0,19.0,64,29.95,10.0,North,24.2,35.7,0.00,,Scattered Clouds,10,2013-03-05 01:53:00
7:53 PM,28.0,16.0,61,30.02,10.0,NNE,24.2,29.9,N/A,,Mostly Cloudy,30,2013-03-05 02:53:00
8:14 PM,26.6,17.6,69,30.09,10.0,NNE,18.4,29.9,N/A,,Overcast,30,2013-03-05 03:14:00
8:31 PM,26.6,21.2,80,30.12,2.5,NNE,13.8,21.9,0.00,Snow,Light Snow,30,2013-03-05 03:31:00
8:42 PM,24.8,21.2,86,30.13,1.8,NNE,15.0,-,0.00,Snow,Light Snow,30,2013-03-05 03:42:00
8:53 PM,24.1,21.9,91,30.09,0.8,NNE,11.5,-,0.00,Snow,Light Snow,20,2013-03-05 03:53:00
9:04 PM,24.8,21.2,86,30.14,1.5,NNE,13.8,-,0.01,Snow,Light Snow,20,2013-03-05 04:04:00
9:15 PM,24.8,19.4,80,30.14,3.0,North,12.7,-,0.01,Snow,Light Snow,360,2013-03-05 04:15:00
9:28 PM,24.8,17.6,74,30.14,9.0,North,15.0,-,0.01,,Overcast,10,2013-03-05 04:28:00
9:53 PM,23.0,16.0,74,30.11,10.0,North,11.5,-,0.01,,Mostly Cloudy,10,2013-03-05 04:53:00
10:53 PM,21.0,15.1,78,30.14,10.0,NNE,10.4,-,N/A,,Mostly Cloudy,20,2013-03-05 05:53:00
11:16 PM,19.4,15.8,86,30.18,10.0,NNE,9.2,-,N/A,,Scattered Clouds,20,2013-03-05 06:16:00
11:53 PM,19.9,12.9,74,30.15,10.0,North,13.8,-,N/A,,Clear,360,2013-03-05 06:53:00